User: anonymous   Login
Location: Young's Pond
(41.2695°N, 72.7766°W)
Time: 01:02:13
(UTC-04:00)
Language:

CZ-4B R/B - Orbit

View from above orbital plane
View from above orbital plane
View from above satellite
View from above satellite

Ground track
Ground track

The orbit data is extracted from the following two-line orbital elements,

1 29093U 06015B   16242.46615870  .00003130  00000-0  81894-4 0  9998
2 29093  97.4862 341.1552 0066752 285.4250  73.9627 15.37296089572675
Epoch (UTC): 29 August 2016 11:11:16
Eccentricity: 0.0066752
inclination: 97.4862°
perigee height: 408 km
apogee height: 500 km
right ascension of ascending node: 341.1552°
argument of perigee: 285.4250°
revolutions per day: 15.37296089
mean anomaly at epoch: 73.9627°
orbit number at epoch: 57267

The dashed part of the orbit path shows where the satellite is in the earth's shadow,  

DLR